WMT6WB LATI-LIPX

Flight info

Callsign WMT6WB
Flight time 1h 21m
Altitude 36000
Route INLOT DCT RETRA DCT MSR DCT UNIPA DCT ROTAR DCT TULIK DCT AKADO/N0442F350 DCT KOPER/N0360F180 L614 OSTEG
Aircraft A321/M-SDE3FGHIRWY/LB1

Departure

Time 2026-04-26 14:23
Airport Tirana International Airport Mother Teresa (LATI)

Arrival

Time 2026-04-26 15:45
Airport Verona Villafranca Valerio Catullo Airport (LIPX)
Time Latitude Longitude Altitude Speed Heading
2026-04-26 13:52 41.41910 19.71524 124 ft 0 kts 264°
2026-04-26 14:12 41.41911 19.71535 119 ft 4 kts 264°
2026-04-26 14:12 41.41915 19.71565 119 ft 4 kts 239°
2026-04-26 14:13 41.41949 19.71581 120 ft 1 kts 174°
2026-04-26 14:13 41.41951 19.71580 123 ft 0 kts 174°
2026-04-26 14:16 41.41943 19.71581 119 ft 4 kts 174°
2026-04-26 14:16 41.41890 19.71589 120 ft 8 kts 174°
2026-04-26 14:17 41.41838 19.71596 120 ft 8 kts 174°
2026-04-26 14:17 41.41784 19.71603 125 ft 8 kts 174°
2026-04-26 14:17 41.41730 19.71610 121 ft 8 kts 174°
2026-04-26 14:17 41.41675 19.71618 124 ft 8 kts 174°
2026-04-26 14:18 41.41619 19.71625 124 ft 8 kts 174°
2026-04-26 14:18 41.41562 19.71633 127 ft 8 kts 174°
2026-04-26 14:18 41.41503 19.71641 123 ft 8 kts 174°
2026-04-26 14:18 41.41445 19.71649 128 ft 9 kts 174°
2026-04-26 14:19 41.41382 19.71657 127 ft 10 kts 174°
2026-04-26 14:19 41.41279 19.71671 126 ft 18 kts 174°
2026-04-26 14:19 41.41152 19.71688 127 ft 18 kts 174°
2026-04-26 14:19 41.41026 19.71704 126 ft 18 kts 174°
2026-04-26 14:20 41.40899 19.71726 127 ft 19 kts 170°
2026-04-26 14:20 41.40771 19.71757 132 ft 19 kts 172°
2026-04-26 14:20 41.40639 19.71776 132 ft 19 kts 174°
2026-04-26 14:20 41.40506 19.71792 132 ft 20 kts 174°
2026-04-26 14:21 41.40400 19.71818 132 ft 12 kts 155°
2026-04-26 14:21 41.40330 19.71882 133 ft 13 kts 144°
2026-04-26 14:21 41.40260 19.71955 133 ft 13 kts 131°
2026-04-26 14:21 41.40240 19.72052 133 ft 10 kts 86°
2026-04-26 14:22 41.40247 19.72152 133 ft 11 kts 83°
2026-04-26 14:22 41.40281 19.72214 132 ft 5 kts 11°
2026-04-26 14:22 41.40319 19.72212 132 ft 6 kts 354°
2026-04-26 14:22 41.40367 19.72205 132 ft 9 kts 353°
2026-04-26 14:23 41.40557 19.72180 133 ft 59 kts 354°
2026-04-26 14:23 41.41197 19.72093 128 ft 123 kts 354°
2026-04-26 14:23 41.42215 19.71961 268 ft 158 kts 354°
2026-04-26 14:23 41.43292 19.71846 975 ft 155 kts 351°
2026-04-26 14:24 41.44378 19.71723 1663 ft 157 kts 353°
2026-04-26 14:24 41.45497 19.71588 2190 ft 170 kts 353°
2026-04-26 14:24 41.46747 19.71438 2463 ft 192 kts 355°
2026-04-26 14:24 41.48138 19.71285 2737 ft 209 kts 354°
2026-04-26 14:25 41.49664 19.71124 2962 ft 232 kts 354°
2026-04-26 14:25 41.51345 19.70926 3317 ft 251 kts 354°
2026-04-26 14:25 41.53109 19.70714 3908 ft 258 kts 355°
2026-04-26 14:25 41.54901 19.70518 4616 ft 261 kts 356°
2026-04-26 14:26 41.56720 19.70327 5348 ft 262 kts 353°
2026-04-26 14:26 41.58483 19.69674 5975 ft 270 kts 340°
2026-04-26 14:26 41.60239 19.68606 6653 ft 276 kts 335°
2026-04-26 14:26 41.61934 19.67418 7286 ft 281 kts 334°
2026-04-26 14:27 41.63665 19.66196 7995 ft 282 kts 335°
2026-04-26 14:27 41.65426 19.65031 8733 ft 282 kts 336°
2026-04-26 14:27 41.67216 19.63912 9422 ft 285 kts 337°
2026-04-26 14:27 41.69025 19.62817 10136 ft 286 kts 338°
2026-04-26 14:28 41.70899 19.61700 10394 ft 305 kts 338°
2026-04-26 14:28 41.72914 19.60506 10540 ft 326 kts 337°
2026-04-26 14:28 41.75034 19.59242 10881 ft 338 kts 336°
2026-04-26 14:28 41.77191 19.57941 11447 ft 342 kts 336°
2026-04-26 14:29 41.79364 19.56621 12074 ft 344 kts 336°
2026-04-26 14:29 41.81555 19.55287 12658 ft 347 kts 335°
2026-04-26 14:29 41.83772 19.53938 13278 ft 350 kts 335°
2026-04-26 14:29 41.86001 19.52580 13851 ft 354 kts 335°
2026-04-26 14:30 41.88258 19.51210 14391 ft 357 kts 335°
2026-04-26 14:30 41.90532 19.49826 14953 ft 360 kts 335°
2026-04-26 14:30 41.92818 19.48425 15499 ft 362 kts 334°
2026-04-26 14:30 41.95123 19.47019 16071 ft 365 kts 334°
2026-04-26 14:31 41.97448 19.45611 16643 ft 368 kts 334°
2026-04-26 14:31 41.99818 19.44286 17199 ft 371 kts 337°
2026-04-26 14:31 42.02255 19.43086 17749 ft 374 kts 339°
2026-04-26 14:31 42.04733 19.41952 18284 ft 378 kts 340°
2026-04-26 14:32 42.07237 19.40831 18774 ft 380 kts 340°
2026-04-26 14:32 42.09755 19.39695 19248 ft 382 kts 339°
2026-04-26 14:32 42.12282 19.38535 19729 ft 385 kts 339°
2026-04-26 14:32 42.14813 19.37346 20223 ft 387 kts 338°
2026-04-26 14:33 42.17359 19.36135 20728 ft 389 kts 338°
2026-04-26 14:33 42.19917 19.34898 21193 ft 392 kts 336°
2026-04-26 14:33 42.22326 19.33296 21663 ft 391 kts 326°
2026-04-26 14:33 42.24506 19.31107 22133 ft 391 kts 316°
2026-04-26 14:34 42.26417 19.28496 22605 ft 391 kts 312°
2026-04-26 14:34 42.28308 19.25834 23077 ft 393 kts 312°
2026-04-26 14:34 42.30213 19.23168 23545 ft 395 kts 312°
2026-04-26 14:34 42.32126 19.20498 23920 ft 397 kts 312°
2026-04-26 14:35 42.34048 19.17813 24287 ft 399 kts 312°
2026-04-26 14:35 42.35976 19.15109 24632 ft 401 kts 312°
2026-04-26 14:35 42.37915 19.12386 24981 ft 404 kts 312°
2026-04-26 14:35 42.39870 19.09636 25297 ft 406 kts 312°
2026-04-26 14:36 42.41834 19.06873 25632 ft 409 kts 313°
2026-04-26 14:36 42.43818 19.04073 25896 ft 413 kts 313°
2026-04-26 14:36 42.45806 19.01255 26192 ft 415 kts 313°
2026-04-26 14:36 42.47812 18.98419 26527 ft 417 kts 313°
2026-04-26 14:37 42.49800 18.95614 26865 ft 419 kts 313°
2026-04-26 14:37 42.51824 18.92754 27192 ft 421 kts 313°
2026-04-26 14:37 42.53862 18.89880 27527 ft 423 kts 313°
2026-04-26 14:37 42.55908 18.86998 27860 ft 425 kts 313°
2026-04-26 14:38 42.57960 18.84096 28191 ft 427 kts 313°
2026-04-26 14:38 42.60015 18.81171 28507 ft 428 kts 313°
2026-04-26 14:38 42.62075 18.78230 28811 ft 430 kts 313°
2026-04-26 14:38 42.63440 18.76276 28995 ft 432 kts 313°
2026-04-26 14:39 42.66223 18.72312 29390 ft 435 kts 313°
2026-04-26 14:39 42.68314 18.69339 29646 ft 437 kts 313°
2026-04-26 14:39 42.70417 18.66338 29906 ft 440 kts 313°
2026-04-26 14:39 42.72528 18.63316 30190 ft 442 kts 313°
2026-04-26 14:40 42.74650 18.60279 30440 ft 443 kts 313°
2026-04-26 14:40 42.76782 18.57231 30742 ft 443 kts 313°
2026-04-26 14:40 42.78904 18.54196 31098 ft 442 kts 313°
2026-04-26 14:40 42.81017 18.51172 31439 ft 441 kts 313°
2026-04-26 14:41 42.83126 18.48142 31771 ft 440 kts 313°
2026-04-26 14:41 42.85224 18.45119 32136 ft 439 kts 313°
2026-04-26 14:41 42.87313 18.42096 32481 ft 438 kts 313°
2026-04-26 14:41 42.89399 18.39074 32804 ft 437 kts 313°
2026-04-26 14:42 42.91491 18.36054 33112 ft 437 kts 313°
2026-04-26 14:42 42.93548 18.33086 33426 ft 436 kts 313°
2026-04-26 14:42 42.95627 18.30083 33765 ft 435 kts 313°
2026-04-26 14:42 42.97703 18.27079 34093 ft 434 kts 313°
2026-04-26 14:43 42.99777 18.24081 34370 ft 433 kts 313°
2026-04-26 14:43 43.01841 18.21089 34637 ft 432 kts 313°
2026-04-26 14:43 43.03902 18.18097 34896 ft 432 kts 313°
2026-04-26 14:43 43.05962 18.15108 35141 ft 431 kts 313°
2026-04-26 14:44 43.08018 18.12121 35391 ft 431 kts 313°
2026-04-26 14:44 43.10070 18.09134 35638 ft 430 kts 312°
2026-04-26 14:44 43.12118 18.06145 35885 ft 430 kts 312°
2026-04-26 14:44 43.14163 18.03154 35999 ft 430 kts 312°
2026-04-26 14:45 43.16207 18.00162 36025 ft 430 kts 312°
2026-04-26 14:45 43.20261 17.94219 36006 ft 429 kts 312°
2026-04-26 14:46 43.24359 17.88207 36005 ft 429 kts 312°
2026-04-26 14:46 43.28324 17.82097 36001 ft 429 kts 308°
2026-04-26 14:47 43.31992 17.75643 36064 ft 429 kts 307°
2026-04-26 14:47 43.35560 17.69145 36061 ft 429 kts 307°
2026-04-26 14:48 43.39202 17.62639 36063 ft 429 kts 308°
2026-04-26 14:48 43.42884 17.56169 36090 ft 430 kts 308°
2026-04-26 14:49 43.46574 17.49686 36090 ft 430 kts 308°
2026-04-26 14:49 43.50256 17.43179 36104 ft 430 kts 307°
2026-04-26 14:50 43.53931 17.36663 36103 ft 431 kts 307°
2026-04-26 14:50 43.57608 17.30124 36108 ft 431 kts 307°
2026-04-26 14:51 43.61277 17.23584 36107 ft 431 kts 307°
2026-04-26 14:51 43.64943 17.17035 36110 ft 431 kts 307°
2026-04-26 14:52 43.68610 17.10475 36111 ft 431 kts 307°
2026-04-26 14:52 43.72266 17.03908 36112 ft 431 kts 307°
2026-04-26 14:53 43.75921 16.97331 36109 ft 431 kts 307°
2026-04-26 14:53 43.79553 16.90801 36105 ft 431 kts 307°
2026-04-26 14:54 43.83202 16.84219 36109 ft 431 kts 307°
2026-04-26 14:54 43.86843 16.77632 36104 ft 430 kts 307°
2026-04-26 14:55 43.90474 16.71036 36099 ft 430 kts 307°
2026-04-26 14:55 43.94101 16.64435 36102 ft 430 kts 307°
2026-04-26 14:56 43.97724 16.57834 36107 ft 430 kts 307°
2026-04-26 14:56 44.01343 16.51223 36104 ft 430 kts 307°
2026-04-26 14:57 44.04507 16.44184 36106 ft 430 kts 297°
2026-04-26 14:57 44.07247 16.36855 36108 ft 430 kts 297°
2026-04-26 14:58 44.10010 16.29474 36103 ft 430 kts 297°
2026-04-26 14:58 44.12773 16.22096 36096 ft 430 kts 297°
2026-04-26 14:59 44.15064 16.15952 36097 ft 430 kts 297°
2026-04-26 14:59 44.17812 16.08563 36089 ft 428 kts 297°
2026-04-26 15:00 44.20542 16.01190 36089 ft 428 kts 297°
2026-04-26 15:00 44.23258 15.93792 36066 ft 428 kts 297°
2026-04-26 15:01 44.25980 15.86401 36085 ft 428 kts 297°
2026-04-26 15:01 44.28714 15.79006 36104 ft 429 kts 297°
2026-04-26 15:02 44.31439 15.71597 36101 ft 429 kts 297°
2026-04-26 15:02 44.34136 15.64234 36100 ft 429 kts 297°
2026-04-26 15:03 44.36845 15.56816 36103 ft 429 kts 297°
2026-04-26 15:03 44.39552 15.49392 36095 ft 428 kts 297°
2026-04-26 15:04 44.42250 15.41966 36099 ft 428 kts 296°
2026-04-26 15:04 44.44936 15.34525 36104 ft 428 kts 296°
2026-04-26 15:05 44.47622 15.27075 36106 ft 428 kts 296°
2026-04-26 15:05 44.50300 15.19642 36103 ft 428 kts 296°
2026-04-26 15:06 44.52952 15.12239 36105 ft 428 kts 296°
2026-04-26 15:06 44.55614 15.04791 36106 ft 428 kts 296°
2026-04-26 15:07 44.59620 14.93609 36120 ft 428 kts 296°
2026-04-26 15:07 44.62276 14.86134 36118 ft 427 kts 296°
2026-04-26 15:08 44.64925 14.78661 36111 ft 427 kts 296°
2026-04-26 15:08 44.67570 14.71195 36104 ft 427 kts 296°
2026-04-26 15:09 44.70209 14.63711 36112 ft 427 kts 296°
2026-04-26 15:09 44.72844 14.56224 36109 ft 427 kts 296°
2026-04-26 15:10 44.75026 14.49996 36104 ft 427 kts 296°
2026-04-26 15:10 44.78091 14.41223 36105 ft 427 kts 296°
2026-04-26 15:11 44.80710 14.33714 36112 ft 427 kts 296°
2026-04-26 15:11 44.83328 14.26198 36112 ft 427 kts 296°
2026-04-26 15:12 44.85937 14.18686 36114 ft 427 kts 295°
2026-04-26 15:12 44.88539 14.11151 36118 ft 427 kts 295°
2026-04-26 15:13 44.91136 14.03606 36141 ft 427 kts 295°
2026-04-26 15:13 44.93734 13.96051 36138 ft 427 kts 295°
2026-04-26 15:14 44.96326 13.88501 36127 ft 427 kts 295°
2026-04-26 15:14 44.98893 13.80991 36132 ft 427 kts 295°
2026-04-26 15:15 45.01472 13.73423 36128 ft 428 kts 295°
2026-04-26 15:15 45.04046 13.65851 36126 ft 427 kts 295°
2026-04-26 15:16 45.06621 13.58274 36116 ft 428 kts 295°
2026-04-26 15:16 45.09192 13.50674 36130 ft 428 kts 295°
2026-04-26 15:17 45.11322 13.44352 36129 ft 428 kts 295°
2026-04-26 15:17 45.14318 13.35459 36130 ft 428 kts 295°
2026-04-26 15:18 45.16869 13.27838 36127 ft 428 kts 294°
2026-04-26 15:18 45.19415 13.20208 36116 ft 428 kts 294°
2026-04-26 15:19 45.20685 13.16396 35980 ft 427 kts 294°
2026-04-26 15:19 45.21944 13.12612 35729 ft 424 kts 294°
2026-04-26 15:19 45.23204 13.08823 35282 ft 422 kts 294°
2026-04-26 15:19 45.24441 13.05109 34821 ft 419 kts 294°
2026-04-26 15:20 45.25467 13.01258 34342 ft 416 kts 284°
2026-04-26 15:20 45.25994 12.97242 33817 ft 414 kts 275°
2026-04-26 15:20 45.26012 12.93172 33329 ft 411 kts 266°
2026-04-26 15:20 45.25813 12.89137 32853 ft 408 kts 267°
2026-04-26 15:21 45.25627 12.85141 32379 ft 405 kts 267°
2026-04-26 15:21 45.25451 12.81167 31900 ft 401 kts 268°
2026-04-26 15:21 45.25278 12.77230 31419 ft 398 kts 268°
2026-04-26 15:21 45.25104 12.73320 30971 ft 395 kts 268°
2026-04-26 15:22 45.24930 12.69441 30520 ft 393 kts 268°
2026-04-26 15:22 45.24755 12.65588 30044 ft 390 kts 268°
2026-04-26 15:22 45.24579 12.61761 29566 ft 386 kts 268°
2026-04-26 15:22 45.24401 12.57983 29138 ft 382 kts 268°
2026-04-26 15:23 45.24221 12.54235 28705 ft 378 kts 268°
2026-04-26 15:23 45.24042 12.50528 28293 ft 375 kts 268°
2026-04-26 15:23 45.23862 12.46850 27887 ft 372 kts 268°
2026-04-26 15:23 45.23682 12.43198 27484 ft 370 kts 268°
2026-04-26 15:24 45.23504 12.39569 27091 ft 367 kts 268°
2026-04-26 15:24 45.23327 12.35966 26703 ft 364 kts 268°
2026-04-26 15:24 45.23152 12.32398 26316 ft 361 kts 268°
2026-04-26 15:24 45.22974 12.28855 25926 ft 359 kts 267°
2026-04-26 15:25 45.22797 12.25344 25549 ft 356 kts 267°
2026-04-26 15:25 45.22681 12.23034 25289 ft 354 kts 267°
2026-04-26 15:25 45.22448 12.18389 24761 ft 351 kts 267°
2026-04-26 15:25 45.22276 12.14941 24370 ft 349 kts 267°
2026-04-26 15:26 45.22104 12.11518 23970 ft 348 kts 267°
2026-04-26 15:26 45.21930 12.08098 23559 ft 347 kts 267°
2026-04-26 15:26 45.21755 12.04700 23116 ft 345 kts 267°
2026-04-26 15:26 45.21582 12.01327 22710 ft 341 kts 266°
2026-04-26 15:27 45.21408 11.97988 22310 ft 338 kts 267°
2026-04-26 15:27 45.21230 11.94681 21901 ft 335 kts 266°
2026-04-26 15:27 45.21049 11.91402 21506 ft 332 kts 266°
2026-04-26 15:27 45.20872 11.88153 21104 ft 330 kts 266°
2026-04-26 15:28 45.20702 11.84918 20717 ft 328 kts 266°
2026-04-26 15:28 45.20532 11.81701 20322 ft 326 kts 266°
2026-04-26 15:28 45.20361 11.78508 19925 ft 324 kts 266°
2026-04-26 15:28 45.20188 11.75326 19535 ft 323 kts 266°
2026-04-26 15:29 45.20014 11.72154 19147 ft 322 kts 266°
2026-04-26 15:29 45.19839 11.68996 18761 ft 321 kts 266°
2026-04-26 15:29 45.19493 11.62692 17944 ft 319 kts 266°
2026-04-26 15:30 45.19150 11.56520 17193 ft 313 kts 266°
2026-04-26 15:30 45.18979 11.53455 16815 ft 311 kts 266°
2026-04-26 15:30 45.18806 11.50409 16437 ft 308 kts 266°
2026-04-26 15:31 45.18629 11.47392 16057 ft 306 kts 266°
2026-04-26 15:31 45.18284 11.41414 15336 ft 303 kts 266°
2026-04-26 15:31 45.18117 11.38454 14975 ft 301 kts 266°
2026-04-26 15:32 45.17836 11.33542 14387 ft 299 kts 266°
2026-04-26 15:32 45.17606 11.29611 13888 ft 299 kts 266°
2026-04-26 15:32 45.17435 11.26681 13493 ft 298 kts 266°
2026-04-26 15:33 45.17265 11.23769 13123 ft 294 kts 265°
2026-04-26 15:33 45.17094 11.20886 12772 ft 292 kts 265°
2026-04-26 15:33 45.16923 11.18031 12412 ft 290 kts 265°
2026-04-26 15:33 45.16750 11.15187 12064 ft 289 kts 265°
2026-04-26 15:34 45.16579 11.12364 11730 ft 287 kts 265°
2026-04-26 15:34 45.16409 11.09557 11386 ft 285 kts 265°
2026-04-26 15:34 45.16243 11.06765 11030 ft 284 kts 265°
2026-04-26 15:34 45.16078 11.03974 10686 ft 283 kts 265°
2026-04-26 15:35 45.15913 11.01203 10356 ft 282 kts 265°
2026-04-26 15:35 45.15745 10.98441 10023 ft 281 kts 265°
2026-04-26 15:35 45.15576 10.95719 9647 ft 281 kts 265°
2026-04-26 15:35 45.15400 10.92937 9299 ft 279 kts 265°
2026-04-26 15:36 45.15230 10.90245 8972 ft 277 kts 265°
2026-04-26 15:36 45.15062 10.87542 8638 ft 275 kts 265°
2026-04-26 15:36 45.14894 10.84847 8293 ft 274 kts 265°
2026-04-26 15:36 45.14728 10.82168 7954 ft 272 kts 265°
2026-04-26 15:37 45.14559 10.79500 7632 ft 271 kts 264°
2026-04-26 15:37 45.14393 10.76884 7532 ft 260 kts 264°
2026-04-26 15:37 45.14234 10.74375 7424 ft 251 kts 264°
2026-04-26 15:37 45.14082 10.71975 7330 ft 241 kts 264°
2026-04-26 15:38 45.14146 10.69626 7237 ft 239 kts 282°
2026-04-26 15:38 45.14776 10.67455 7079 ft 239 kts 302°
2026-04-26 15:38 45.15877 10.65698 6652 ft 240 kts 316°
2026-04-26 15:38 45.17086 10.64061 6267 ft 240 kts 316°
2026-04-26 15:39 45.18310 10.62446 5870 ft 239 kts 323°
2026-04-26 15:39 45.19831 10.61684 5515 ft 234 kts
2026-04-26 15:39 45.21320 10.62411 5178 ft 227 kts 40°
2026-04-26 15:39 45.21708 10.62929 5080 ft 224 kts 48°
2026-04-26 15:40 45.23398 10.65529 4535 ft 208 kts 46°
2026-04-26 15:40 45.24391 10.66959 4225 ft 199 kts 46°
2026-04-26 15:40 45.25351 10.68325 3956 ft 192 kts 45°
2026-04-26 15:40 45.26279 10.69639 3709 ft 185 kts 45°
2026-04-26 15:41 45.27171 10.70911 3481 ft 178 kts 46°
2026-04-26 15:41 45.28030 10.72138 3255 ft 172 kts 46°
2026-04-26 15:41 45.28866 10.73335 3058 ft 168 kts 46°
2026-04-26 15:41 45.29694 10.74533 2790 ft 171 kts 46°
2026-04-26 15:42 45.30527 10.75738 2530 ft 170 kts 46°
2026-04-26 15:42 45.31353 10.76934 2294 ft 168 kts 46°
2026-04-26 15:42 45.32162 10.78106 2067 ft 165 kts 47°
2026-04-26 15:42 45.32965 10.79269 1850 ft 165 kts 47°
2026-04-26 15:43 45.33765 10.80426 1650 ft 164 kts 46°
2026-04-26 15:43 45.34291 10.81190 1496 ft 159 kts 47°
2026-04-26 15:43 45.35786 10.83353 1093 ft 151 kts 47°
2026-04-26 15:44 45.36525 10.84416 883 ft 151 kts 46°
2026-04-26 15:44 45.37990 10.86548 480 ft 151 kts 47°
2026-04-26 15:44 45.38723 10.87619 303 ft 152 kts 47°
2026-04-26 15:45 45.39928 10.89377 242 ft 80 kts 45°
2026-04-26 15:45 45.40172 10.89727 247 ft 29 kts 45°
2026-04-26 15:46 45.40282 10.89928 246 ft 8 kts 79°
2026-04-26 15:46 45.40294 10.90020 245 ft 11 kts 79°
2026-04-26 15:46 45.40311 10.90123 244 ft 11 kts 75°
2026-04-26 15:46 45.40324 10.90194 243 ft 12 kts 75°
2026-04-26 15:47 45.40327 10.90271 242 ft 1 kts 115°
2026-04-26 15:47 45.40295 10.90326 242 ft 6 kts 135°
2026-04-26 15:47 45.40263 10.90371 242 ft 7 kts 135°
2026-04-26 15:48 45.40242 10.90400 242 ft 3 kts 136°
2026-04-26 15:48 45.40225 10.90424 242 ft 4 kts 136°
2026-04-26 15:48 45.40198 10.90428 242 ft 3 kts 184°
2026-04-26 15:48 45.40186 10.90428 242 ft 0 kts 180°